Погода в Болниси

Погода в Болниси : погода сейчас, прогноз погоды и архив. Всё, что Вы хотите узнать о погоде в Болниси!

Поиск расширенной информации на нашем сайте:

Другие новости

Новости СМИ2

Главная страница сайта

Новости сайта

02.10.2013

Напоминаем, что на нашем новом сайте вы можете получить высокодетализированные прогнозы погоды по пунктам России, СНГ и мира (включающие важные для авиации метеовеличины, такие как направление и скорость ветра, видимость, явления погоды, количество и форма облачности, нижняя и верхняя граница облачности), а также ознакомиться с разнообразными материалами по авиационной метеорологии и подборкой полезных ссылок на эту тему.

Сайт Метеоцентр.Азия посвящён разработке технологий оптимизации авиаметеорологического обслуживания, включая проектирование и перспективное создание нескольких автоматизированных авиаметеорологических систем:
- система выпуска высокодетальных прогностических карт явлений погоды для нижнего воздушного пространства по России и ближнему зарубежью;
- система верификации прогнозов TAF (выпускаемых синоптиками официальных АМСГ РФ и ближнего зарубежья) и AUTOTAF (выпускаемых сайтом Метеоцентр.Азия) - выявление ошибок, онлайн-сопоставление с фактической погодой METAR, автоматическое внесение коррективов в прогнозы при резком отклонении фактической погоды от прогноза, подсчёт оправдываемости прогнозов по элементам и в целом;
- система обработки, анализа и отображения авиаметеорологической информации для применения провайдерами метеорологической информации.

Рекомендуем: Свадьба на Бали и других островах

Погода в Болниси - сегодня

Время (UTC), дата Ветер
(°,м/с) 
Видим.   Явления Облачность Т
(°С)
Тd
(°С)
f(%) Тe
(°С)
Pmin
(гПа)
dP
(гПа)
Po
(мм)
O2
(г/м3)
Тmin Tmax R s Состояние
почвы
18 24.05.17 270 (З) н/о    8/4 1000 м средняя 
[Sc|Ac trans]
+14 +9.5 74 +16  1015.9  1.2  715  272    +17.6  0.4     
21 24.05.17 270 (З) н/о    9/9 1000 м 
[Sc]
+13.2 +4.5 56 +14  1016.9  0.7  716  274           
00 25.05.17 270 (З) н/о    4/0 1000 м средняя 
[Ac trans]
+11.6 +4.8 63 +12  1017.4  0.1  716  276           
06 25.05.17 160 (Ю) 20000 м    1/0 1000 м средняя 
[Ac trans]
+18.1 +8.2 52 +20  1015.7  -0.2  716  269  +9         
09 25.05.17 110 (В) 20000 м    3/0 1000 м средняя 
[Ac trans]
+20.3 +2.1 30 +20  1014.2  -0.9  715  268           
12 25.05.17 180 (Ю) 20000 м    6/3 1000 м средняя 
[Sc|Ac trans]
+21.9 +5.8 35 +22  1013.1  -0.8  714  266           
15 25.05.17 180 (Ю) 20000 м    5/0 1000 м средняя 
[Ac trans]
+21.1 +5.9 37 +21  1013.7  0.4  715  266    +23.2       
18 25.05.17 270 (З) н/о    9/9 1000 м 
[Sc]
+16.9 +8.8 59 +19  1015.9  1.3  716  270    +23.2       
21 25.05.17 270 (З) н/о    3/0 1000 м средняя 
[Ac trans]
+14.9 +7 59 +16  1014.2  0.8  716  272           
00 26.05.17 тихо ()   н/о    5/0 1000 м средняя 
[Ac trans]
+13.6 +6.8 63 +14  1017.1  -0.4  716  274           
03 26.05.17 290 (З) 20000 м    8/0 1000 м средняя, верхняя 
[Ac trans|Ci fib]
+13.6 +8.4 71 +15  1017.7  0.6  716  273           
06 26.05.17 320 (СЗ) 20000 м    8/8 1000 м 
[Sc]
+18.3 +11.5 65 +24  1017.2  0.5  717  268  +12.5         
09 26.05.17 090 (В) 20000 м    6/6 1000 м 
[Cu med, cong]
+19.9 +11.4 58 +25  1015.6  -1.1  716  267           
12 26.05.17 090 (В) 20000 м    4/4 1000 м 
[Cu med, cong]
+21.7 +11.5 52 +26  1012.8  -2.3  714  264           
21 26.05.17 тихо ()   н/о  {ливн. осадки}  4/0 1000 м средняя 
[Ac trans]
+14.9 +12.2 84 +20  1015.6  0.4  715  271           
03 27.05.17 320 (СЗ) 20000 м    9/9 1000 м 
[Sc]
+13.3 +10.4 83 +18  1014.8  714  272      0.6     
09 27.05.17 090 (В) 20000 м    8/8 1000 м 
+20.4 +12.6 61 +20    -1.4             
12 27.05.17 090 (В) 20000 м  {ливн. осадки}  9/9 1000 м 
[Sc]
+20.8 +12.5 59 +27  1009.1  -2  712  264           
21 27.05.17 270 (З) н/о  {ливн. осадки}  8/0 1000 м средняя, верхняя 
[Ac trans|Ci fib]
+15.1 +12.2 83 +21  1012.6  713  270           
03 28.05.17 270 (З) 20000 м  {ливн. осадки}  6/0 1000 м средняя 
[Ac trans]
+14.9 +22.5 100 +43  1013.3  714  266         
09 28.05.17 090 (В) 20000 м    9/8 1000 м средняя 
[Sc|Ac trans]
+23 +11 47 +27  1010.2  -0.6  715  264           
21 28.05.17 тихо ()   н/о    1/0 средняя 
[Ac trans]
+14.4 +7.7 64 +14  1017.2  1.1  716  273           
03 29.05.17 270 (З) 20000 м    1/0 средняя 
[Ac trans]
+13 +8.8 76 +14  1018.9  0.6  717  274      0.0     
09 29.05.17 140 (ЮВ) 20000 м    1/0 1000 м средняя 
[Ac trans]
+22.5 +10.7 47 +25  1018.4  1.3  718  265           
21 29.05.17 тихо ()   н/о  {гроза}  ясно 
+15.3 +13.9 91 +23  1020.3  -0.3  719  271           
Время (UTC), дата Ветер
(°,м/с) 
Видим.   Явления Облачность Т
(°С)
Тd
(°С)
f(%) Тe
(°С)
Pmin
(гПа)
dP
(гПа)
Po
(мм)
O2
(г/м3)
Тmin Tmax R s Состояние
почвы

Для получения пояснительной информации подведите курсор к названию столбца.

ПОГОДА в Болниси - архив

Всё, что Вы хотите узнать о погоде в Болниси - удобно и подробно!

Выберите нужную дату (начиная с 1 января 2015* года) и нажмите кнопку "Найти".
Будут отображены архивные сводки погоды по пункту Болниси, начиная с указанной даты.


Отображать данные в формате CSV (для использования в таблицах Excel)


Внимание! Наш архив погоды предназначен исключительно для личного некоммерческого использования в познавательных целях. Если Вам необходимы официальные справки о состоянии погоды (для производственных, юридических, коммерческих и т.п. целей), обращайтесь в органы Росгидромета.

*Примечание: данная дата относится к архиву по метеостанциям СССР (Россия, СНГ, Балтия).
Архив по метеостанциям Зарубежной Европы и Азии (кроме Китая) хранится 10 дней, по другим регионам земного шара (Китай, Африка, Америка, Австралия, Океания) - 1 день.

Болниси - район местоположения метеостанции


Название, широта, долгота, высота метеостанции:
Болниси 41.4°ш. 44.6°д. 534 м над ур. моря [Грузия]

Дополнительная информация

В oтличие oт бoльшинства пoгoдных сайтoв мы публикуем пoдрoбную метеoинфoрмацию в детальнoм прoфессиoнальнoм фoрмате.

Характеристики температуры и влажнoсти вoздуха измеряются на высoте 2 м в тени вдали oт зданий и деревьев.
Скoрoсть ветра измеряется на высoте 10 м (на урoвне рoста челoвека скoрoсть ветра ниже в 1.5-2 раза). Если метеoстанция нахoдится в гoрoде или в лесу, тo скoрoсть ветра занижена на 2-4 м/с пo сравнению с oткрытым местoм. Скoрoсть ветра над акватoриями крупных рек и oзёр, а также на вершинах хoлмoв на 2-5 м/с выше, чем в oбычных услoвиях.
Атмoсфернoе давление в разных тoчках местнoсти мoжет значительнo oтличаться oт давления на метеoстанции, в зависимoсти oт услoвий рельефа (при пoдъёме на 10 м давление пoнижается примернo на 1 мм рт.ст.).